Location: Aranbee
(34.0885°N, 118.2342°W)
Time: 12:02:34
(UTC+00:00)

Tiros 1 - Pass Details

Date: 05 December 2020
Orbit: 630 x 663 km, 48.4° (Epoch: 21 January)

Event Time Altitude Azimuth Distance (km) Brightness Sun altitude
Rises 03:11:46 0° 308° (NW) 2,985 11.1 -30.1°
Reaches altitude 10° 03:14:08 10° 309° (NW) 2,066 10.2 -30.6°
Enters shadow 03:16:24 28° 310° (NW) 1,223 8.8 -31.0°
Maximum altitude 03:18:54 87° 36° (NE) 656 - -31.5°
Drops below altitude 10° 03:23:37 10° 128° (SE) 2,037 - -32.5°
Sets 03:25:56 0° 129° (SE) 2,939 - -33.0°
